• In Belarus
  • List of Countries
  • For 7 days
  • Water Temperature
  • Satellite Maps
  • Weather Map
  • Weather Widgets
  • user-avatar
    Login

    Hourly Weather Abovyan

    Today, 25 February, Sunday

    Time Temperature Precipitation Wind Pressure Humidity
    00:00 +3°C° 0 mm 1 mps 665 mmHg 60%
    01:00 +2°C° 0 mm 1 mps 665 mmHg 60%
    02:00 +2°C° 0 mm 1 mps 665 mmHg 60%
    03:00 +2°C° 0 mm 1 mps 665 mmHg 60%
    04:00 +2°C° 0 mm 1 mps 665 mmHg 61%
    05:00 +1°C° 0 mm 1 mps 665 mmHg 61%
    06:00 +1°C° 0 mm 1 mps 665 mmHg 61%
    07:00 +2°C° 0 mm 1 mps 665 mmHg 60%
    08:00 +2°C° 0 mm 2 mps 665 mmHg 60%
    09:00 +4°C° 0 mm 2 mps 665 mmHg 59%
    10:00 +5°C° 0 mm 2 mps 665 mmHg 58%
    11:00 +5°C° 0 mm 3 mps 665 mmHg 57%
    12:00 +7°C° 0 mm 3 mps 664 mmHg 55%
    13:00 +7°C° 0 mm 3 mps 664 mmHg 55%
    14:00 +7°C° 0 mm 3 mps 663 mmHg 54%
    15:00 +8°C° 0 mm 3 mps 663 mmHg 54%
    16:00 +7°C° 0 mm 3 mps 663 mmHg 56%
    17:00 +5°C° 0 mm 3 mps 663 mmHg 58%
    18:00 +4°C° 0 mm 3 mps 663 mmHg 60%
    19:00 +4°C° 0.1 mm 2 mps 663 mmHg 61%
    20:00 +4°C° 0.1 mm 2 mps 663 mmHg 62%
    21:00 +4°C° 0.1 mm 2 mps 664 mmHg 63%
    22:00 +4°C° 0.1 mm 2 mps 664 mmHg 64%
    23:00 +4°C° 0.1 mm 2 mps 663 mmHg 66%

    Tomorrow, 26 February, Monday

    Time Temperature Precipitation Wind Pressure Humidity
    00:00 +4°C° 0.1 mm 2 mps 663 mmHg 67%
    01:00 +4°C° 0.3 mm 2 mps 663 mmHg 68%
    02:00 +4°C° 0.3 mm 2 mps 663 mmHg 69%
    03:00 +4°C° 0.3 mm 2 mps 664 mmHg 71%
    04:00 +4°C° 0.2 mm 2 mps 664 mmHg 72%
    05:00 +3°C° 0.2 mm 2 mps 664 mmHg 73%
    06:00 +3°C° 0.2 mm 2 mps 664 mmHg 74%
    07:00 +4°C° 0.2 mm 2 mps 664 mmHg 74%
    08:00 +4°C° 0.2 mm 2 mps 664 mmHg 73%
    09:00 +5°C° 0.2 mm 2 mps 665 mmHg 72%
    10:00 +5°C° 0.3 mm 2 mps 665 mmHg 71%
    11:00 +6°C° 0.3 mm 2 mps 665 mmHg 70%
    12:00 +6°C° 0.3 mm 2 mps 665 mmHg 69%
    13:00 +7°C° 0.2 mm 2 mps 664 mmHg 67%
    14:00 +7°C° 0.2 mm 2 mps 664 mmHg 65%
    15:00 +8°C° 0.2 mm 2 mps 664 mmHg 64%
    16:00 +7°C° 0.1 mm 2 mps 664 mmHg 65%
    17:00 +6°C° 0.1 mm 2 mps 664 mmHg 67%
    18:00 +5°C° 0.1 mm 2 mps 664 mmHg 68%
    19:00 +5°C° 0 mm 2 mps 664 mmHg 69%
    20:00 +4°C° 0 mm 2 mps 664 mmHg 70%
    21:00 +5°C° 0 mm 1 mps 664 mmHg 71%
    22:00 +4°C° 0 mm 1 mps 665 mmHg 70%
    23:00 +4°C° 0 mm 1 mps 665 mmHg 70%

    Day after tomorrow, 27 February, Tuesday

    Time Temperature Precipitation Wind Pressure Humidity
    00:00 +4°C° 0 mm 1 mps 665 mmHg 70%
    01:00 +4°C° 0.1 mm 1 mps 665 mmHg 70%
    02:00 +4°C° 0.1 mm 1 mps 665 mmHg 70%
    03:00 +4°C° 0.1 mm 1 mps 665 mmHg 70%
    04:00 +4°C° 0.1 mm 1 mps 665 mmHg 71%
    05:00 +4°C° 0.1 mm 1 mps 665 mmHg 72%
    06:00 +4°C° 0.1 mm 1 mps 665 mmHg 73%
    07:00 +3°C° 0.1 mm 2 mps 666 mmHg 72%
    08:00 +4°C° 0.1 mm 2 mps 666 mmHg 72%
    09:00 +5°C° 0.1 mm 2 mps 666 mmHg 71%
    10:00 +6°C° 0.1 mm 2 mps 666 mmHg 69%
    11:00 +7°C° 0.1 mm 2 mps 666 mmHg 67%
    12:00 +8°C° 0.1 mm 3 mps 666 mmHg 65%
    13:00 +8°C° 0.1 mm 3 mps 666 mmHg 63%
    14:00 +8°C° 0.1 mm 3 mps 665 mmHg 62%
    15:00 +9°C° 0.1 mm 2 mps 665 mmHg 60%
    16:00 +8°C° 0 mm 2 mps 665 mmHg 62%
    17:00 +7°C° 0 mm 2 mps 666 mmHg 64%
    18:00 +6°C° 0 mm 2 mps 666 mmHg 65%
    19:00 +6°C° 0 mm 2 mps 666 mmHg 66%
    20:00 +5°C° 0 mm 2 mps 667 mmHg 67%
    21:00 +4°C° 0 mm 2 mps 667 mmHg 68%
    22:00 +4°C° 0.1 mm 2 mps 667 mmHg 69%
    23:00 +5°C° 0.1 mm 1 mps 667 mmHg 70%

    28 February, Wednesday

    Time Temperature Precipitation Wind Pressure Humidity
    00:00 +5°C° 0.1 mm 1 mps 667 mmHg 71%
    01:00 +5°C° 0.4 mm 1 mps 667 mmHg 73%
    02:00 +5°C° 0.4 mm 1 mps 668 mmHg 75%
    03:00 +5°C° 0.4 mm 1 mps 668 mmHg 77%
    04:00 +5°C° 0.3 mm 1 mps 668 mmHg 78%
    05:00 +5°C° 0.3 mm 1 mps 668 mmHg 79%
    06:00 +5°C° 0.3 mm 1 mps 668 mmHg 79%
    07:00 +5°C° 0.1 mm 1 mps 669 mmHg 76%
    08:00 +6°C° 0.1 mm 1 mps 669 mmHg 74%
    09:00 +7°C° 0.1 mm 1 mps 669 mmHg 71%
    10:00 +8°C° 0 mm 1 mps 669 mmHg 69%
    11:00 +9°C° 0 mm 1 mps 669 mmHg 68%
    12:00 +9°C° 0 mm 1 mps 669 mmHg 66%
    13:00 +10°C° 0 mm 1 mps 669 mmHg 64%
    14:00 +10°C° 0 mm 1 mps 669 mmHg 62%
    15:00 +10°C° 0 mm 1 mps 669 mmHg 60%
    16:00 +9°C° 0 mm 1 mps 669 mmHg 61%
    17:00 +8°C° 0 mm 1 mps 668 mmHg 62%
    18:00 +7°C° 0 mm 1 mps 668 mmHg 63%
    19:00 +7°C° 0 mm 1 mps 669 mmHg 64%
    20:00 +6°C° 0 mm 1 mps 669 mmHg 64%
    21:00 +6°C° 0 mm 1 mps 669 mmHg 65%
    22:00 +6°C° 0 mm 1 mps 669 mmHg 65%
    23:00 +5°C° 0 mm 1 mps 669 mmHg 65%

    1 March, Thursday

    Time Temperature Precipitation Wind Pressure Humidity
    00:00 +5°C° 0 mm 1 mps 669 mmHg 66%
    01:00 +5°C° 0 mm 1 mps 669 mmHg 65%
    02:00 +4°C° 0 mm 1 mps 669 mmHg 65%
    03:00 +4°C° 0 mm 1 mps 669 mmHg 64%
    04:00 +4°C° 0 mm 1 mps 669 mmHg 65%
    05:00 +4°C° 0 mm 1 mps 669 mmHg 65%
    06:00 +4°C° 0 mm 1 mps 669 mmHg 66%
    07:00 +4°C° 0 mm 2 mps 669 mmHg 66%
    08:00 +5°C° 0 mm 2 mps 669 mmHg 65%
    09:00 +6°C° 0 mm 2 mps 669 mmHg 65%
    10:00 +7°C° 0 mm 3 mps 669 mmHg 62%
    11:00 +8°C° 0 mm 3 mps 668 mmHg 60%
    12:00 +9°C° 0 mm 3 mps 668 mmHg 57%
    13:00 +9°C° 0 mm 3 mps 667 mmHg 56%
    14:00 +9°C° 0 mm 3 mps 667 mmHg 54%
    15:00 +10°C° 0 mm 3 mps 667 mmHg 53%
    16:00 +9°C° 0.1 mm 3 mps 667 mmHg 55%
    17:00 +8°C° 0.1 mm 3 mps 667 mmHg 57%
    18:00 +7°C° 0.1 mm 2 mps 667 mmHg 59%
    19:00 +7°C° 0.1 mm 2 mps 667 mmHg 60%
    20:00 +6°C° 0.1 mm 2 mps 667 mmHg 61%
    21:00 +6°C° 0.1 mm 2 mps 667 mmHg 62%
    22:00 +6°C° 0.1 mm 2 mps 667 mmHg 63%
    23:00 +5°C° 0.1 mm 2 mps 667 mmHg 64%

    2 March, Friday

    Time Temperature Precipitation Wind Pressure Humidity
    00:00 +5°C° 0.1 mm 2 mps 667 mmHg 65%
    01:00 +5°C° 0.2 mm 2 mps 667 mmHg 67%
    02:00 +5°C° 0.2 mm 2 mps 667 mmHg 68%
    03:00 +5°C° 0.2 mm 2 mps 668 mmHg 69%
    04:00 +5°C° 0.1 mm 2 mps 668 mmHg 70%
    05:00 +4°C° 0.1 mm 2 mps 668 mmHg 71%
    06:00 +4°C° 0.1 mm 2 mps 668 mmHg 71%
    07:00 +5°C° 0 mm 2 mps 668 mmHg 69%
    08:00 +6°C° 0 mm 2 mps 669 mmHg 66%
    09:00 +7°C° 0 mm 3 mps 669 mmHg 64%
    10:00 +8°C° 0 mm 3 mps 669 mmHg 62%
    11:00 +9°C° 0 mm 3 mps 669 mmHg 60%
    12:00 +9°C° 0 mm 3 mps 668 mmHg 58%
    13:00 +10°C° 0.1 mm 3 mps 668 mmHg 57%
    14:00 +10°C° 0.1 mm 3 mps 668 mmHg 56%
    15:00 +10°C° 0.1 mm 3 mps 668 mmHg 54%
    16:00 +9°C° 0.1 mm 3 mps 668 mmHg 56%
    17:00 +9°C° 0.1 mm 3 mps 668 mmHg 58%
    18:00 +8°C° 0.1 mm 2 mps 668 mmHg 60%
    19:00 +7°C° 0 mm 2 mps 669 mmHg 61%
    20:00 +7°C° 0 mm 2 mps 669 mmHg 62%
    21:00 +6°C° 0 mm 2 mps 669 mmHg 63%
    22:00 +6°C° 0 mm 2 mps 669 mmHg 64%
    23:00 +7°C° 0 mm 1 mps 669 mmHg 65%
    Show more